SCP
0 0 0 0 0 0 0 0 0 0 0 0 0 0 0 0 0 0 0 0 0 0 0 0 0 0 0 0 0 0 0 0 0 0 0 0 0 0 0 0 0 0 0
0 0 0 0 0 0 0 0 0 0 0 0 0 0 0 0 0 0 0 0 0 0 0 0 0 0 0 0 0 0 0 0 0 0 0 0 0 0 0 0 0 0 0
0 0 0 0 0 0 0 0 0 0 0 0 0 0 0 0 0 0 0 0 0 0 0 0 0 0 0 0 0 0 0 0 0 0 0 0 0 0 0 0 0 0 0
0 0 0 0 0 0 0 0 0 0 0 0 0 0 0 0 0 0 0 0 0 0 0 0 0 0 0 0 0 0 0 0 0 0 0 0 0 0 0 0 0 0 0
0 0 0 0 0 0 0 0 0 0 0 0 0 0 0 0 0 0 0 0 0 0 0 0 0 0 0 0 0 0 0 0 0 0 0 0 0 0 0 0 0 0 0
0 0 0 0 0 0 0 0 0 0 0 0 0 0 0 0 0 0 0 0 0 0 0 0 0 0 0 0 0 0 0 0 0 0 0 0 0 0 0 0 0 0 0
0 0 0 0 0 0 0 0 0 0 0 0 0 0 0 0 0 0 0 0 0 0 0 0 0 0 0 0 0 0 0 0 0 0 0 0 0 0 0 0 0 0 0
0 0 0 0 0 0 0 0 0 0 0 0 0 0 0 0 0 0 0 0 0 0 0 0 0 0 0 0 0 0 0 0 0 0 0 0 0 0 0 0 0 0 0
0 0 0 0 0 0 0 0 0 0 0 0 0 0 0 0 0 0 0 0 0 0 0 0 0 0 0 0 0 0 0 0 0 0 0 0 0 0 0 0 0 0 0
0 0 0 0 0 0 0 0 0 0 0 0 0 0 0 0 0 0 0 0 0 0 0 0 0 0 0 0 0 0 0 0 0 0 0 0 0 0 0 0 0 0 0
0 0 0 0 0 0 0 0 0 0 0 0 0 0 0 0 0 0 0 0 0 0 0 0 0 0 0 0 0 0 0 0 0 0 0 0 0 0 0 0 0 0 0
0 0 0 0 0 0 0 0 0 0 0 0 0 0 0 0 0 0 0 0 0 0 0 0 0 0 0 0 0 0 0 0 0 0 0 0 0 0 0 0 0 0 0
0 0 0 0 0 0 0 0 0 0 0 0 0 0 0 0 0 0 0 0 0 0 0 0 0 0 0 0 0 0 0 0 0 0 0 0 0 0 0 0 0 0 0
0 0 0 0 0 0 0 0 0 0 0 0 0 0 0 0 0 0 0 0 0 0 0 0 0 0 0 0 0 0 0 0 0 0 0 0 0 0 0 0 0 0 0
0 0 0 0 0 0 0 0 0 0 0 0 0 0 0 0 0 0 0 0 0 0 0 0 0 0 0 0 0 0 0 0 0 0 0 0 0 0 0 0 0 0 0
0 0 0 0 0 0 0 0 0 0 0 0 0 0 0 0 0 0 0 0 0 0 0 0 0 0 0 0 0 0 0 0 0 0 0 0 0 -0 -0 -0 0 0 0
0 0 0 0 0 0 0 0 0 0 0 0 0 0 0 0 0 0 0 0 0 0 0 0 0 0 0 0 0 0 0 0 0 0 0 0 0 -0 -0 -0 0 0 0
0 0 0 0 0 0 0 0 0 0 0 0 0 0 0 0 0 0 0 0 0 0 0 0 0 0 0 0 0 0 0 0 0 0 0 0 0 0 -0 0 0 0 0
0 0 0 0 0 0 0 0 0 0 0 0 0 0 0 0 0 0 0 0 0 0 0 0 0 0 0 0 0 0 0 0 0 0 0 0 0 0 0 0 0 0 0
0 0 0 0 0 0 0 0 0 0 0 0 0 0 0 0 0 0 0 0 0 0 0 0 0 0 0 0 -0 -0 0 0 0 0 0 0 0 0 0 0 0 0 0
0 0 0 0 0 0 0 0 0 0 0 0 0 0 0 0 0 0 0 0 0 0 0 0 0 0 0 -0 -0 -0 -0 0 0 0 0 0 0 0 -0 0 0 0 0
0 0 0 0 0 0 0 0 0 0 0 0 0 0 0 0 0 0 0 0 0 0 0 0 0 0 0 -0 -0 -0 -0 0 0 0 0 0 0 0 -0 -0 0 0 0
0 0 0 0 0 0 0 0 0 0 0 0 0 0 0 0 0 0 0 0 0 0 0 0 0 0 0 -0 -0 -0 -0 0 0 0 0 0 0 0 -0 -0 0 0 0
0 0 0 0 0 0 0 0 0 0 0 0 0 0 0 0 0 0 0 0 0 0 0 0 0 -0 -0 -0 -0 -0 -0 0 0 0 0 0 0 0 0 -0 0 0 0
0 0 0 0 0 0 0 0 0 0 0 0 0 0 0 0 0 0 0 0 0 0 0 0 0 0 -0 -0 -0 -0 -0 0 0 0 0 -0 0 0 0 0 0 0 0
0 0 0 0 0 0 0 0 0 0 0 0 0 0 0 0 0 0 0 0 0 0 0 0 0 0 0 0 0 0 0 0 0 0 0 0 0 0 0 0 0 0 0
Wind_Speed
8 7 7 7 6 6 6 6 5 5 4 4 3 2 3 3 2 2 3 3 2 1 1 2 2 3 3 3 3 3 3 3 3 2 1 1 1 1 1 0 1 2 3
7 7 7 7 7 7 7 6 6 6 5 5 4 4 4 3 3 3 3 3 3 2 1 2 2 2 3 3 3 3 3 3 3 2 1 1 1 1 1 1 1 1 2
8 8 8 8 8 8 8 7 7 6 6 6 5 5 5 4 4 3 2 2 2 1 1 1 1 2 2 2 3 2 2 2 2 2 1 1 1 1 1 1 1 1 1
8 9 9 9 8 8 8 8 8 7 7 7 6 6 5 4 4 3 3 3 2 2 1 0 1 2 3 3 3 3 3 3 2 2 1 0 1 1 1 1 1 1 1
8 9 8 8 8 8 8 8 8 9 9 7 7 7 6 4 4 4 3 3 2 3 2 1 0 1 3 3 3 3 4 3 2 2 1 0 1 1 1 1 1 1 1
7 8 7 7 8 8 8 8 8 8 8 8 9 8 8 7 9 8 5 3 3 3 3 3 2 2 3 4 5 5 5 4 3 2 1 1 0 0 0 0 0 1 1
7 7 7 7 7 7 7 8 8 8 8 9 9 8 8 9 12 10 8 4 3 3 3 3 2 3 4 3 5 7 5 4 4 4 3 1 1 0 1 1 1 1 1
6 7 7 6 6 6 7 7 7 6 7 7 8 8 8 10 14 12 9 5 4 4 4 3 3 3 3 3 4 5 4 4 4 3 3 2 1 1 1 1 1 2 2
6 6 6 6 6 6 7 6 6 5 7 7 6 8 8 10 14 13 10 4 4 5 4 4 4 3 4 5 5 5 5 4 5 7 7 6 6 5 3 2 2 3 2
4 4 5 5 6 6 6 5 5 5 6 5 7 7 8 8 13 13 10 4 4 4 4 5 7 6 6 5 4 4 5 3 3 5 6 7 6 7 8 4 2 2 2
3 4 5 5 5 5 5 5 5 5 6 6 6 6 7 9 11 14 11 4 3 4 4 4 4 7 8 7 5 3 4 5 4 4 5 5 5 5 5 5 4 3 2
4 5 5 6 5 5 5 5 5 5 6 6 6 7 6 7 9 11 13 10 7 4 4 3 4 9 10 9 6 7 9 7 4 4 5 4 4 4 4 5 6 7 6
4 5 4 5 5 5 5 5 5 5 5 5 5 6 6 6 7 13 13 12 10 5 4 8 9 10 9 9 11 11 8 5 4 4 4 3 2 2 3 3 5 5 7
4 3 3 4 4 4 4 4 4 5 5 5 5 5 5 5 6 6 5 6 7 6 5 8 11 13 9 9 9 8 6 5 4 4 3 2 3 3 4 3 3 3 5
3 2 2 2 2 3 3 3 3 3 3 3 3 3 4 5 7 9 6 5 4 4 4 5 6 6 7 6 6 6 6 5 5 3 3 4 4 4 3 3 3 4 4
3 2 1 1 1 1 1 2 2 3 5 7 6 4 3 5 8 11 12 12 11 9 7 6 6 6 6 5 5 5 5 5 4 4 4 4 4 4 4 4 4 4 4
3 3 2 2 1 1 0 1 2 3 4 6 8 8 7 8 9 10 10 12 13 10 7 6 5 5 5 5 5 4 4 4 3 4 4 4 4 4 4 4 4 4 4
3 3 3 2 2 2 2 1 1 1 2 3 4 7 8 9 10 10 9 8 7 7 5 5 4 4 4 4 4 4 3 4 4 4 4 4 3 3 4 3 3 3 3
3 2 2 2 2 2 2 1 1 1 0 1 2 3 5 6 8 10 8 5 4 4 4 3 3 3 3 3 3 3 3 4 4 3 4 4 3 3 3 3 3 4 3
2 4 4 2 2 1 1 1 1 1 1 1 1 1 1 2 2 3 3 3 3 2 2 2 2 3 2 3 3 3 3 3 4 3 3 3 3 3 3 3 3 3 3
2 2 3 2 2 2 2 2 2 2 2 2 2 2 2 1 0 0 0 1 1 1 1 1 1 2 2 2 2 3 3 3 2 2 2 2 2 3 3 3 3 3 3
2 2 2 3 3 3 3 3 3 3 3 3 2 2 3 2 2 1 1 1 1 1 1 1 1 0 0 1 1 2 2 2 2 2 2 2 2 2 2 2 3 2 2
2 2 3 3 3 4 3 3 3 4 4 4 3 3 3 3 3 3 3 3 2 2 2 2 1 1 1 1 1 1 1 1 0 1 1 2 2 2 2 2 2 2 2
2 3 3 3 3 3 4 4 4 4 4 4 4 4 4 4 4 4 4 3 3 3 3 2 2 3 3 2 1 1 1 2 2 1 1 2 2 2 2 2 2 2 2
2 3 3 3 3 4 4 4 4 5 5 5 5 4 4 5 5 4 4 4 4 4 5 4 3 3 4 4 3 2 3 3 3 3 2 2 3 3 2 2 2 2 2
3 3 3 3 4 4 4 4 5 5 5 5 5 5 5 5 5 5 5 5 5 4 5 4 5 5 5 4 4 4 4 4 3 4 3 3 3 3 3 2 3 2 3
Wind_Direction
14 16 19 20 21 25 29 28 32 38 43 52 61 79 79 75 88 108 111 115 120 135 177 186 194 180 180 181 173 172 178 173 203 246 257 281 301 327 347 286 223 215 227
14 19 22 20 22 26 27 25 28 35 37 42 48 59 64 67 71 87 104 108 119 134 158 175 193 186 180 171 170 178 180 177 183 217 275 317 319 336 327 310 280 226 224
19 25 27 25 26 28 27 27 31 36 37 40 48 53 54 54 58 64 79 87 100 118 139 182 198 180 183 173 171 173 171 165 160 171 241 327 329 353 4 358 353 346 275
23 28 29 24 24 27 30 32 33 36 40 37 39 39 42 47 48 48 54 55 44 38 39 203 197 190 190 179 170 164 149 137 137 149 171 314 321 341 31 11 0 3 342
22 26 23 21 26 30 33 34 35 36 38 34 37 32 27 35 36 35 36 44 36 28 16 8 64 138 165 164 155 152 143 132 128 128 129 73 1 17 10 351 357 353 8
24 22 18 24 29 29 29 32 36 36 35 37 35 30 28 28 32 39 44 42 39 36 24 11 14 54 105 114 123 140 145 144 147 141 139 142 171 237 293 14 35 47 40
25 21 19 24 30 25 29 34 33 31 34 37 32 28 24 21 34 39 44 50 48 44 34 22 22 46 71 90 95 94 93 103 132 143 136 145 146 149 129 74 59 65 58
24 21 18 23 29 27 33 32 26 26 31 32 30 25 23 22 29 35 43 47 48 40 34 31 35 35 51 91 99 88 75 65 82 97 113 121 126 126 118 114 113 91 65
23 20 17 23 31 32 32 26 20 27 32 30 27 25 23 15 20 29 39 38 43 36 28 33 40 39 46 94 105 103 91 72 77 89 91 81 73 77 93 90 78 78 56
17 21 24 32 40 38 32 27 22 29 29 27 29 23 20 14 17 27 36 37 38 29 25 26 30 40 52 89 105 115 112 97 87 76 64 53 50 52 56 64 93 99 91
37 40 35 36 45 41 37 30 27 29 29 26 23 18 17 14 15 25 34 41 38 36 33 24 21 39 57 75 90 99 115 117 99 88 75 59 50 47 43 43 48 75 93
67 56 45 37 40 40 42 35 30 30 33 24 19 14 11 8 13 23 35 44 48 52 40 26 34 51 59 62 70 88 101 98 91 84 76 62 54 47 47 52 58 61 60
83 68 57 51 43 38 43 39 33 31 32 26 22 15 4 4 8 21 31 39 41 51 48 55 60 59 59 58 61 71 76 79 85 84 78 64 48 48 54 57 53 60 56
104 87 71 63 50 40 39 37 39 32 29 26 20 10 2 5 8 6 13 25 33 42 44 52 59 58 58 55 53 52 51 61 77 81 76 56 46 52 47 44 50 43 55
122 115 96 79 69 49 42 35 34 27 26 27 6 358 5 7 8 26 36 32 35 40 48 48 45 44 49 46 46 46 45 48 54 51 63 64 58 58 45 34 46 55 70
147 155 155 146 120 66 29 8 7 19 32 41 36 31 14 28 35 42 45 48 49 55 64 58 52 50 50 47 48 46 42 41 40 51 59 62 64 67 62 50 56 72 80
175 183 184 190 198 213 264 353 347 348 15 32 28 34 42 41 48 48 53 54 50 55 63 58 54 50 48 46 44 47 41 30 37 53 60 59 65 66 69 67 65 68 67
180 191 190 203 211 220 229 238 250 332 345 343 2 26 44 49 49 45 47 56 46 43 50 53 49 44 45 46 45 44 43 40 44 50 53 54 60 71 73 69 65 70 65
184 194 195 202 211 221 223 217 216 217 272 324 343 2 28 45 47 44 47 59 64 52 46 47 44 44 43 45 47 49 51 49 47 51 51 52 55 70 76 72 73 69 66
210 219 200 194 206 213 209 202 203 199 209 259 289 299 344 30 30 23 37 54 68 65 58 53 42 46 50 51 51 55 56 51 46 51 51 53 57 68 80 80 79 77 67
217 234 217 195 206 211 209 209 207 203 213 231 246 242 190 154 172 127 58 68 96 110 100 75 50 46 53 58 61 66 70 62 54 56 59 58 65 70 71 78 82 85 93
209 216 210 213 217 216 217 213 206 210 220 226 234 246 205 177 195 205 213 218 204 194 187 167 150 116 95 90 95 97 89 76 60 60 69 74 79 83 86 85 85 85 94
225 230 229 228 224 227 222 213 211 215 222 224 218 214 207 209 214 215 216 213 203 200 194 184 183 194 176 151 151 153 154 162 165 122 115 107 104 102 102 104 109 106 102
243 245 244 243 232 225 223 224 219 220 223 225 220 215 213 211 212 215 211 203 199 203 202 199 206 214 205 189 189 195 205 220 222 214 174 153 139 126 118 111 110 112 114
244 249 249 246 240 234 231 230 226 225 225 224 222 218 215 209 210 209 202 197 197 204 209 207 209 215 216 211 211 225 240 243 222 193 177 159 155 149 142 136 135 130 132
245 250 250 247 243 238 232 232 232 228 227 228 224 219 214 209 208 204 195 192 196 204 209 209 211 211 212 214 222 232 244 249 231 197 171 161 162 164 156 147 143 136 136